Location: McCall
(45.0000°N, 116.0000°W)
Time: 13:56:55
(UTC-06:00)

Amateur Radio Satellites - All Passes

Search period start: 26 August 2016 13:26
Search period end: 27 August 2016 13:26
Location: McCall, 45.0000°N, 116.0000°W

Satellite Date Start Highest point End Downlink Frequencies (MHz)
Time Altitude Azimuth
POPSAT HIP 1 26 Aug 13:28:33 13:31:50 21° 267° (W) 13:35:09 437.405
Oscar 19 26 Aug 13:28:59 13:33:36 34° 66° (ENE) 13:38:16 437.125/150
Cosmos 2499 26 Aug 13:34:23 13:42:33 76° 95° (E) 13:50:08 435.465 / 435.565
50 SAT 26 Aug 13:41:41 13:45:20 86° 103° (ESE) 13:49:00 437.505
BEESAT 2 26 Aug 13:45:03 13:47:09 14° 326° (NW) 13:49:14 435.950
PCSat 26 Aug 13:46:10 13:51:35 80° 303° (WNW) 13:57:03 145.827
VELOX 1 26 Aug 13:47:06 13:51:37 86° 105° (ESE) 13:56:04 145.980
CUBEBUG 1 26 Aug 13:53:05 13:57:31 67° 286° (WNW) 14:01:53 437.445
DUCHIFAT 1 26 Aug 14:00:04 14:01:35 12° 271° (W) 14:03:06 145.980
AIST 2 26 Aug 14:03:43 14:07:48 77° 123° (ESE) 14:11:57 435.215
RS-15 26 Aug 14:06:37 14:15:25 24° 261° (W) 14:24:07 29.354- 29.394
AO-7 26 Aug 14:09:12 14:14:29 19° 44° (NE) 14:19:44 29.400- 29.500
DX 1 26 Aug 14:09:20 14:13:46 82° 284° (WNW) 14:18:08 434.975-435.025
SPROUT 26 Aug 14:17:23 14:21:42 84° 285° (WNW) 14:25:58 437.525
ESTCUBE 1 26 Aug 14:22:24 14:26:06 25° 295° (WNW) 14:29:48 437.505/2401.250
AUBIESAT-1 26 Aug 14:26:29 14:29:24 19° 303° (WNW) 14:32:11 437.475
Gurwin Techsat 1B 26 Aug 14:27:26 14:32:35 54° 71° (ENE) 14:37:47 435.225
M-CUBED/EXP-1 PRIME 26 Aug 14:31:18 14:33:46 15° 306° (NW) 14:36:06 437.505
AO-85 26 Aug 14:33:14 14:37:06 29° 43° (NE) 14:40:43 145.980
ISS 26 Aug 14:33:20 14:36:14 28° 11° (N) 14:39:09 145.825
AISAT 26 Aug 14:36:25 14:40:19 30° 293° (WNW) 14:44:10 437.250
O/OREOS (USA 219) 26 Aug 14:38:37 14:42:21 26° 103° (ESE) 14:46:07 437.305
ITAMSAT 1 26 Aug 14:40:41 14:44:48 24° 62° (ENE) 14:48:55 435.822/435.867
TISAT 1 26 Aug 14:41:45 14:45:43 38° 98° (E) 14:49:38 437.305
JAS-2 26 Aug 14:52:49 14:54:36 12° 275° (W) 14:56:25 435.910
UKube-1 26 Aug 14:52:51 14:56:51 37° 292° (WNW) 15:00:50 .
Oscar 19 26 Aug 15:08:18 15:12:55 33° 264° (W) 15:17:35 437.125/150
SWISSCUBE 26 Aug 15:10:36 15:13:55 19° 92° (E) 15:17:13 437.505
GONETS M04 26 Aug 15:24:53 15:31:43 25° 298° (WNW) 15:38:39
VELOX 1 26 Aug 15:25:43 15:27:23 12° 302° (WNW) 15:29:03 145.980
BEESAT 26 Aug 15:27:29 15:31:21 24° 94° (E) 15:35:13 436.000
Cosmos 2499 26 Aug 15:30:10 15:36:23 24° 295° (WNW) 15:42:20 435.465 / 435.565
PCSat 26 Aug 15:32:10 15:35:51 18° 323° (NW) 15:39:34 145.827
AIST 2 26 Aug 15:44:01 15:46:48 17° 323° (NW) 15:49:35 435.215
DX 1 26 Aug 15:48:51 15:49:11 10° 303° (WNW) 15:49:31 434.975-435.025
AO-7 26 Aug 15:57:32 16:05:48 69° 66° (ENE) 16:14:05 29.400- 29.500
Gurwin Techsat 1B 26 Aug 16:08:51 16:12:52 22° 268° (W) 16:16:54 435.225
ISS 26 Aug 16:09:43 16:13:01 88° 27° (NNE) 16:16:18 145.825
ITUPSAT 1 26 Aug 16:13:26 16:18:12 66° 102° (ESE) 16:22:56 437.325
AO-85 26 Aug 16:13:43 16:17:35 34° 244° (WSW) 16:21:13 145.980
O/OREOS (USA 219) 26 Aug 16:17:29 16:21:36 35° 302° (WNW) 16:25:47 437.305
TISAT 1 26 Aug 16:17:57 16:21:08 21° 295° (WNW) 16:24:17 437.305
ITAMSAT 1 26 Aug 16:18:58 16:23:59 49° 260° (W) 16:29:01 435.822/435.867
HORYU 2 26 Aug 16:21:56 16:23:23 11° 58° (ENE) 16:24:50 437.375
SWISSCUBE 26 Aug 16:47:23 16:52:01 53° 289° (WNW) 16:56:39 437.505
BEESAT 26 Aug 17:04:49 17:09:16 40° 292° (WNW) 17:13:42 436.000
NOAA 15 26 Aug 17:18:36 17:21:10 14° 56° (NE) 17:23:45 137.62
YUBILEINY 26 Aug 17:22:06 17:29:37 30° 65° (ENE) 17:37:01 435.215
MOZHAYETS 4 26 Aug 17:29:10 17:33:44 64° 101° (ESE) 17:38:16
GOMX 1 26 Aug 17:30:54 17:33:02 13° 55° (NE) 17:35:12 467.674
KKS-1 26 Aug 17:32:45 17:37:08 52° 100° (E) 17:41:28 437.445
NOAA 18 26 Aug 17:41:31 17:44:59 17° 57° (ENE) 17:48:28 137.9125
BRITE-PL 26 Aug 17:45:40 17:49:55 31° 65° (ENE) 17:54:29 437.365/2234.400
ISS 26 Aug 17:47:16 17:49:04 14° 227° (SW) 17:50:51 145.825
AO-7 26 Aug 17:52:08 17:59:09 29° 266° (W) 18:06:13 29.400- 29.500
ITUPSAT 1 26 Aug 17:52:32 17:55:31 17° 300° (WNW) 17:58:30 437.325
HORYU 2 26 Aug 17:54:46 17:59:15 90° 219° (SW) 18:03:44 437.375
STARS 26 Aug 18:12:04 18:16:29 67° 103° (ESE) 18:20:50 437.465
Cosmos 2504 26 Aug 18:23:37 18:29:08 22° 63° (ENE) 18:34:32 435.465 / 435.565
Cubesat XI-IV 26 Aug 18:37:35 18:42:42 48° 69° (ENE) 18:47:49 437.490
BEESAT 2 26 Aug 18:43:58 18:46:39 17° 38° (NE) 18:49:19 435.950
CUBESAT XI-V 26 Aug 18:45:48 18:50:25 53° 100° (E) 18:55:00 437.345
CUTE-I 26 Aug 18:49:41 18:54:56 61° 71° (ENE) 19:00:12 437.470
LilacSat-2 26 Aug 18:54:31 18:58:19 60° 74° (ENE) 19:02:06 437.200
NOAA 15 26 Aug 18:54:54 19:00:09 85° 75° (ENE) 19:05:28 137.62
Cosmos 2491 26 Aug 19:00:56 19:09:15 52° 89° (E) 19:17:39 435.465 / 435.565
BEESAT 3 26 Aug 19:04:00 19:07:43 37° 47° (NE) 19:11:25 437.485
GOMX 1 26 Aug 19:05:03 19:10:07 77° 75° (ENE) 19:15:31 467.674
MOZHAYETS 4 26 Aug 19:07:40 19:10:24 16° 299° (WNW) 19:13:09
KKS-1 26 Aug 19:10:16 19:13:19 18° 298° (WNW) 19:16:21 437.445
DOVE 4 26 Aug 19:17:51 19:22:49 50° 71° (ENE) 19:27:57 437.250
YUBILEINY 26 Aug 19:18:26 19:27:07 67° 268° (W) 19:35:42 435.215
HO-68 26 Aug 19:18:31 19:24:19 27° 56° (ENE) 19:30:07 435.675
NOAA 18 26 Aug 19:19:25 19:24:58 82° 255° (WSW) 19:30:33 137.9125
BRITE-PL 26 Aug 19:23:51 19:28:17 36° 265° (W) 19:33:05 437.365/2234.400
CANX-2 26 Aug 19:37:29 19:40:18 18° 64° (ENE) 19:43:07 2200.000
STRAND 1 26 Aug 19:39:44 19:41:08 11° 87° (E) 19:42:32 437.568
CUTE 1.7 + AOD 2 26 Aug 19:43:47 19:46:38 18° 64° (ENE) 19:49:29 437.475
STARS 26 Aug 19:49:55 19:52:18 14° 300° (WNW) 19:54:40 437.465
COMPASS 1 26 Aug 20:00:39 20:02:41 14° 62° (ENE) 20:04:44 437.405
CINEMA 3 26 Aug 20:07:19 20:12:05 45° 70° (ENE) 20:16:49 145.822/145.860
Cosmos 2504 26 Aug 20:16:04 20:23:20 73° 265° (W) 20:30:26 435.465 / 435.565
Cubesat XI-IV 26 Aug 20:18:41 20:23:00 25° 267° (W) 20:27:20 437.490
BEESAT 2 26 Aug 20:20:56 20:24:56 74° 238° (WSW) 20:28:56 435.950
CUBESAT XI-V 26 Aug 20:24:04 20:27:25 20° 297° (WNW) 20:30:45 437.345
CUTE-I 26 Aug 20:31:40 20:35:24 19° 269° (W) 20:39:09 437.470
LilacSat-2 26 Aug 20:31:52 20:32:59 11° 271° (W) 20:34:07 437.200
FUNcube-1 26 Aug 20:33:44 20:34:21 10° 59° (ENE) 20:34:59 145.935
CUBEBUG 2 26 Aug 20:33:54 20:37:43 25° 66° (ENE) 20:41:28 437.445
UWE-3 26 Aug 20:34:48 20:37:51 18° 63° (ENE) 20:40:52 435.000/436.395/437.385
NOAA 15 26 Aug 20:38:15 20:40:37 13° 272° (W) 20:43:00 137.62
BEESAT 3 26 Aug 20:42:00 20:45:13 24° 246° (WSW) 20:48:25 437.485
AIST 2 26 Aug 20:45:45 20:48:21 16° 36° (NE) 20:50:56 435.215
GOMX 1 26 Aug 20:45:59 20:48:52 15° 274° (W) 20:51:49 467.674
AIST 1 26 Aug 20:48:08 20:51:54 27° 72° (ENE) 20:55:38
PCSat 26 Aug 20:49:20 20:53:45 25° 42° (NE) 20:58:09 145.827
ZACube-1 26 Aug 20:52:05 20:54:57 17° 63° (ENE) 20:57:48 437.345
SEEDS 26 Aug 20:52:20 20:56:27 65° 75° (ENE) 21:00:36 437.485
DOVE 4 26 Aug 20:56:41 21:00:46 23° 269° (W) 21:04:57 437.250
Cosmos 2491 26 Aug 20:58:23 21:06:21 38° 291° (WNW) 21:14:25 435.465 / 435.565
HO-68 26 Aug 21:04:17 21:11:27 70° 256° (WSW) 21:18:40 435.675
NOAA 18 26 Aug 21:04:39 21:06:27 11° 273° (W) 21:08:16 137.9125
CANX-2 26 Aug 21:11:45 21:15:49 47° 261° (W) 21:19:54 2200.000
STRAND 1 26 Aug 21:15:55 21:21:03 87° 106° (ESE) 21:26:10 437.568
CUTE 1.7 + AOD 2 26 Aug 21:18:06 21:22:09 46° 261° (W) 21:26:13 437.475
YUBILEINY 26 Aug 21:18:32 21:22:05 13° 289° (WNW) 21:25:38 435.215
AAUSAT CUBESAT 2 26 Aug 21:26:38 21:30:44 86° 78° (ENE) 21:34:53 437.432
COMPASS 1 26 Aug 21:33:40 21:37:45 63° 259° (W) 21:41:52 437.405
DELFI C3 26 Aug 21:40:42 21:43:38 20° 66° (ENE) 21:46:34 145.870
CINEMA 3 26 Aug 21:45:20 21:49:22 24° 267° (W) 21:53:24 145.822/145.860
HUMSAT D 26 Aug 21:48:35 21:50:40 14° 62° (ENE) 21:52:47 437.325/437.525
Oscar 11 26 Aug 21:59:33 22:03:51 79° 75° (ENE) 22:08:10 145.826/435.025
FUNcube-1 26 Aug 22:05:26 22:09:54 85° 78° (ENE) 22:14:17 145.935
AUBIESAT-1 26 Aug 22:06:48 22:08:42 12° 53° (NE) 22:10:37 437.475
PRISM 26 Aug 22:09:00 22:12:55 37° 98° (E) 22:16:48 437.425
UWE-3 26 Aug 22:09:26 22:13:56 54° 260° (W) 22:18:21 435.000/436.395/437.385
CUBEBUG 2 26 Aug 22:09:47 22:14:10 38° 263° (W) 22:18:28 437.445
M-CUBED/EXP-1 PRIME 26 Aug 22:10:27 22:13:19 16° 55° (NE) 22:16:10 437.505
Cosmos 2504 26 Aug 22:12:53 22:15:13 12° 286° (WNW) 22:17:31 435.465 / 435.565
AIST 2 26 Aug 22:23:14 22:27:27 90° 182° (S) 22:31:37 435.215
AIST 1 26 Aug 22:25:39 22:29:28 29° 270° (W) 22:33:16
ZACube-1 26 Aug 22:26:28 22:30:51 54° 260° (W) 22:35:10 437.345
SEEDS 26 Aug 22:31:02 22:32:36 12° 271° (W) 22:34:09 437.485
PCSat 26 Aug 22:32:14 22:37:38 67° 242° (WSW) 22:42:59 145.827
STRAND 1 26 Aug 22:56:51 22:59:31 14° 303° (WNW) 23:02:11 437.568
HO-68 26 Aug 22:57:44 23:00:26 12° 275° (W) 23:03:09 435.675
O/OREOS (USA 219) 26 Aug 23:08:33 23:10:02 11° 45° (NE) 23:11:31 437.305
VELOX 1 26 Aug 23:12:54 23:14:35 12° 58° (ENE) 23:16:16 145.980
DELFI C3 26 Aug 23:14:40 23:18:16 34° 263° (W) 23:21:54 145.870
CUBEBUG 1 26 Aug 23:16:35 23:19:07 15° 61° (ENE) 23:21:39 437.445
ANTELSAT 26 Aug 23:16:40 23:20:02 22° 93° (E) 23:23:21 437.575/2403.000
HUMSAT D 26 Aug 23:21:41 23:25:50 62° 259° (W) 23:29:56 437.325/437.525
Cosmos 2499 26 Aug 23:23:44 23:29:37 27° 67° (ENE) 23:35:27 435.465 / 435.565
GONETS M04 26 Aug 23:33:02 23:41:29 46° 72° (ENE) 23:49:52
DX 1 26 Aug 23:33:04 23:35:08 13° 59° (ENE) 23:37:13 434.975-435.025
AUBIESAT-1 26 Aug 23:37:47 23:42:25 81° 70° (ENE) 23:47:04 437.475
Oscar 11 26 Aug 23:39:59 23:40:32 10° 272° (W) 23:41:06 145.826/435.025
SPROUT 26 Aug 23:40:13 23:41:24 11° 59° (ENE) 23:42:35 437.525
M-CUBED/EXP-1 PRIME 26 Aug 23:42:33 23:47:14 77° 252° (WSW) 23:51:58 437.505
PRISM 26 Aug 23:44:47 23:48:00 22° 295° (WNW) 23:51:13 437.425
ESTCUBE 1 26 Aug 23:46:29 23:50:42 42° 70° (ENE) 23:54:58 437.505/2401.250
TIGRISAT 26 Aug 23:47:23 23:51:30 43° 99° (E) 23:55:33 435.000
CUSAT 1 26 Aug 23:49:32 23:50:56 13° 83° (E) 23:52:26 437.405
AISAT 26 Aug 23:58:59 00:02:59 34° 68° (ENE) 00:07:02 437.250
QB50P2 27 Aug 00:06:41 00:08:16 12° 89° (E) 00:09:50 145.880/145.840
POLYITAN 1 27 Aug 00:09:11 00:10:47 12° 89° (E) 00:12:23 437.675
JAS-2 27 Aug 00:11:13 00:13:54 12° 86° (E) 00:16:40 435.910
UKube-1 27 Aug 00:13:37 00:17:09 25° 66° (ENE) 00:20:43 .
UNISAT 6 27 Aug 00:15:35 00:19:55 87° 290° (WNW) 00:24:11 437.425
RS-15 27 Aug 00:16:39 00:18:59 11° 90° (E) 00:21:20 29.354- 29.394
NANOSAT C BR1 27 Aug 00:18:09 00:20:25 14° 90° (E) 00:22:40 145.865
50 SAT 27 Aug 00:20:34 00:24:00 47° 73° (ENE) 00:27:29 437.505
O/OREOS (USA 219) 27 Aug 00:45:42 00:50:18 72° 64° (ENE) 00:54:54 437.305
VELOX 1 27 Aug 00:45:55 00:50:22 85° 258° (WSW) 00:54:52 145.980
SO-50 27 Aug 00:50:07 00:54:47 48° 119° (ESE) 00:59:26 436.795
CUBEBUG 1 27 Aug 00:50:32 00:54:53 64° 259° (WSW) 00:59:19 437.445
ANTELSAT 27 Aug 00:52:55 00:56:52 36° 291° (WNW) 01:00:46 437.575/2403.000
QB50P1 27 Aug 01:00:17 01:04:20 41° 98° (E) 01:08:18 145.935-145.965
BUGSAT 1 27 Aug 01:03:28 01:06:16 17° 92° (E) 01:09:01 437.445
DX 1 27 Aug 01:06:23 01:10:44 74° 257° (WSW) 01:15:08 434.975-435.025
POPSAT HIP 1 27 Aug 01:10:08 01:14:17 52° 100° (E) 01:18:23 437.405
SPROUT 27 Aug 01:12:20 01:16:39 88° 250° (WSW) 01:21:01 437.525
AUBIESAT-1 27 Aug 01:15:22 01:17:21 13° 266° (W) 01:19:21 437.475
Cosmos 2499 27 Aug 01:16:17 01:23:11 58° 268° (W) 01:30:07 435.465 / 435.565
ESTCUBE 1 27 Aug 01:24:21 01:27:42 21° 267° (W) 01:31:05 437.505/2401.250
TIGRISAT 27 Aug 01:24:49 01:27:53 19° 296° (WNW) 01:30:56 435.000
CUSAT 1 27 Aug 01:29:52 01:32:28 26° 291° (WNW) 01:35:36 437.405
GONETS M04 27 Aug 01:30:04 01:38:16 44° 273° (W) 01:46:27
TISAT 1 27 Aug 01:35:00 01:38:57 38° 69° (ENE) 01:42:53 437.305
AISAT 27 Aug 01:35:47 01:39:30 26° 265° (W) 01:43:15 437.250
DUCHIFAT 1 27 Aug 01:38:55 01:43:08 83° 286° (WNW) 01:47:18 145.980
QB50P2 27 Aug 01:40:19 01:44:32 67° 286° (WNW) 01:48:42 145.880/145.840
POLYITAN 1 27 Aug 01:42:51 01:47:03 66° 286° (WNW) 01:51:12 437.675
ITUPSAT 1 27 Aug 01:47:22 01:49:32 13° 58° (ENE) 01:51:42 437.325
UKube-1 27 Aug 01:49:08 01:53:04 33° 263° (W) 01:57:01 .
NANOSAT C BR1 27 Aug 01:52:22 01:56:31 55° 287° (WNW) 02:00:36 145.865
JAS-2 27 Aug 01:53:08 01:59:50 69° 103° (ESE) 02:07:18 435.910
UNISAT 6 27 Aug 01:55:38 01:55:54 10° 302° (WNW) 01:56:10 437.425
50 SAT 27 Aug 01:56:29 01:57:53 12° 269° (W) 01:59:16 437.505
RS-15 27 Aug 02:17:15 02:28:18 56° 113° (ESE) 02:39:55 29.354- 29.394
SWISSCUBE 27 Aug 02:18:43 02:22:43 27° 65° (ENE) 02:26:42 437.505
DANDE 27 Aug 02:19:20 02:21:19 19° 290° (WNW) 02:23:26 436.750
O/OREOS (USA 219) 27 Aug 02:27:03 02:29:05 13° 262° (W) 02:31:07 437.305
SO-50 27 Aug 02:31:15 02:35:29 29° 318° (NW) 02:39:41 436.795
BEESAT 27 Aug 02:35:33 02:39:52 35° 67° (ENE) 02:44:11 436.000
QB50P1 27 Aug 02:36:45 02:39:49 20° 296° (WNW) 02:42:52 145.935-145.965
BUGSAT 1 27 Aug 02:37:54 02:41:52 43° 289° (WNW) 02:45:45 437.445
Gurwin Techsat 1B 27 Aug 02:42:35 02:46:11 18° 90° (E) 02:49:46 435.225
POPSAT HIP 1 27 Aug 02:47:02 02:49:40 16° 297° (WNW) 02:52:18 437.405
PHONESAT 2.4 27 Aug 02:58:26 02:59:32 11° 154° (SSE) 03:00:37 2401.200-2431.200
TISAT 1 27 Aug 03:11:27 03:14:42 21° 267° (W) 03:17:59 437.305
Oscar 19 27 Aug 03:17:01 03:22:15 76° 104° (ESE) 03:27:27 437.125/150
ITUPSAT 1 27 Aug 03:21:54 03:26:41 87° 256° (WSW) 03:31:29 437.325
JAS-2 27 Aug 03:39:06 03:44:27 27° 298° (WNW) 03:50:16 435.910
SWISSCUBE 27 Aug 03:55:59 04:00:22 36° 263° (W) 04:04:46 437.505
AO-7 27 Aug 03:58:33 04:03:53 18° 89° (E) 04:09:08 29.400- 29.500
BEESAT 27 Aug 04:13:37 04:17:40 28° 265° (W) 04:21:46 436.000
Gurwin Techsat 1B 27 Aug 04:21:19 04:26:36 64° 288° (WNW) 04:31:50 435.225
RS-15 27 Aug 04:29:28 04:40:54 56° 318° (NW) 04:52:58 29.354- 29.394
ITAMSAT 1 27 Aug 04:29:33 04:34:35 50° 100° (E) 04:39:36 435.822/435.867
KKS-1 27 Aug 04:32:19 04:36:45 61° 72° (ENE) 04:41:11 437.445
MOZHAYETS 4 27 Aug 04:32:40 04:37:13 75° 74° (ENE) 04:41:47
PHONESAT 2.4 27 Aug 04:32:40 04:35:19 28° 170° (S) 04:37:58 2401.200-2431.200
Oscar 19 27 Aug 04:57:42 05:00:57 17° 301° (WNW) 05:04:13 437.125/150
Cosmos 2491 27 Aug 05:08:47 05:16:15 29° 65° (ENE) 05:23:40 435.465 / 435.565
STARS 27 Aug 05:10:10 05:14:36 76° 74° (ENE) 05:19:03 437.465
HORYU 2 27 Aug 05:45:08 05:47:36 15° 91° (E) 05:50:03 437.375
AO-7 27 Aug 05:49:27 05:57:50 84° 109° (ESE) 06:06:08 29.400- 29.500
CUBESAT XI-V 27 Aug 05:50:46 05:55:18 63° 73° (ENE) 05:59:53 437.345
BRITE-PL 27 Aug 05:51:19 05:51:53 10° 83° (E) 05:52:27 437.365/2234.400
Gurwin Techsat 1B 27 Aug 06:04:40 06:05:31 10° 307° (NW) 06:06:21 435.225
PHONESAT 2.4 27 Aug 06:08:36 06:11:20 31° 186° (S) 06:14:02 2401.200-2431.200
ITAMSAT 1 27 Aug 06:09:40 06:13:45 24° 298° (WNW) 06:17:48 435.822/435.867
KKS-1 27 Aug 06:11:13 06:13:42 15° 270° (W) 06:16:12 437.445
MOZHAYETS 4 27 Aug 06:13:10 06:14:54 12° 272° (W) 06:16:40
YUBILEINY 27 Aug 06:26:16 06:33:39 31° 82° (E) 06:41:03 435.215
AO-85 27 Aug 06:28:11 06:33:16 48° 119° (ESE) 06:38:05 145.980
RS-15 27 Aug 06:46:41 06:56:56 31° 351° (N) 07:07:27 29.354- 29.394
STARS 27 Aug 06:49:59 06:51:29 11° 271° (W) 06:52:59 437.465
Cubesat XI-IV 27 Aug 06:54:00 06:57:11 16° 90° (E) 07:00:22 437.490
STRAND 1 27 Aug 06:56:16 07:00:05 22° 62° (ENE) 07:03:55 437.568
Cosmos 2491 27 Aug 07:05:06 07:13:52 70° 267° (W) 07:22:36 435.465 / 435.565
CUTE-I 27 Aug 07:05:31 07:09:26 21° 92° (E) 07:13:20 437.470
GOMX 1 27 Aug 07:05:47 07:10:02 23° 90° (E) 07:14:08 467.674
Cosmos 2504 27 Aug 07:05:54 07:11:12 19° 79° (ENE) 07:16:18 435.465 / 435.565
NOAA 15 27 Aug 07:08:28 07:12:58 27° 94° (E) 07:17:28 137.62
DOVE 4 27 Aug 07:17:14 07:19:16 12° 85° (E) 07:21:15 437.250
HORYU 2 27 Aug 07:20:11 07:24:33 59° 288° (WNW) 07:28:52 437.375
BRITE-PL 27 Aug 07:25:35 07:31:18 70° 101° (E) 07:36:55 437.365/2234.400
CUBESAT XI-V 27 Aug 07:30:34 07:33:07 15° 271° (W) 07:35:42 437.345
NOAA 18 27 Aug 07:39:45 07:44:47 36° 97° (E) 07:49:45 137.9125
SO-50 27 Aug 07:40:15 07:43:06 16° 31° (NNE) 07:45:54 436.795
AO-7 27 Aug 07:43:13 07:49:44 27° 309° (NW) 07:56:13 29.400- 29.500
PHONESAT 2.4 27 Aug 07:45:21 07:47:11 15° 203° (SSW) 07:49:01 2401.200-2431.200
LilacSat-2 27 Aug 08:00:04 08:03:51 70° 102° (ESE) 08:07:36 437.200
AO-85 27 Aug 08:09:16 08:13:55 32° 316° (NW) 08:18:18 145.980
YUBILEINY 27 Aug 08:21:07 08:29:52 63° 283° (WNW) 08:38:39 435.215
HO-68 27 Aug 08:30:53 08:36:05 21° 90° (E) 08:41:14 435.675
Cubesat XI-IV 27 Aug 08:32:30 08:37:49 73° 287° (WNW) 08:43:06 437.490
STRAND 1 27 Aug 08:33:54 08:38:53 54° 259° (W) 08:43:54 437.568
GOMX 1 27 Aug 08:43:06 08:48:25 53° 289° (WNW) 08:53:29 467.674
CUTE-I 27 Aug 08:44:38 08:49:51 57° 289° (WNW) 08:55:02 437.470
NOAA 15 27 Aug 08:47:53 08:52:53 43° 292° (WNW) 08:57:53 137.62
DOVE 4 27 Aug 08:52:33 08:57:42 84° 286° (WNW) 09:02:32 437.250
CANX-2 27 Aug 08:54:58 08:58:29 25° 94° (E) 09:01:59 2200.000
Cosmos 2504 27 Aug 08:55:04 09:03:33 89° 108° (ESE) 09:11:29 435.465 / 435.565
PRISM 27 Aug 09:00:12 09:03:56 34° 68° (ENE) 09:07:40 437.425
CUTE 1.7 + AOD 2 27 Aug 09:01:10 09:04:42 25° 94° (E) 09:08:13 437.475
RS-15 27 Aug 09:02:57 09:14:06 37° 25° (NNE) 09:25:16 29.354- 29.394
Cosmos 2491 27 Aug 09:04:57 09:08:57 14° 288° (WNW) 09:13:00 435.465 / 435.565
BRITE-PL 27 Aug 09:05:05 09:09:11 21° 299° (WNW) 09:13:15 437.365/2234.400
AAUSAT CUBESAT 2 27 Aug 09:08:53 09:10:25 12° 89° (E) 09:11:56 437.432
COMPASS 1 27 Aug 09:15:17 09:18:09 18° 92° (E) 09:21:00 437.405
SO-50 27 Aug 09:19:47 09:24:26 73° 53° (NE) 09:28:55 436.795
NOAA 18 27 Aug 09:20:29 09:25:24 35° 295° (WNW) 09:30:17 137.9125
AIST 1 27 Aug 09:21:00 09:23:19 14° 84° (E) 09:25:38
LilacSat-2 27 Aug 09:36:51 09:37:35 10° 299° (WNW) 09:38:21 437.200
CINEMA 3 27 Aug 09:37:14 09:41:51 80° 101° (E) 09:46:12 145.822/145.860
UNISAT 6 27 Aug 09:42:08 09:44:13 13° 60° (ENE) 09:46:16 437.425
Oscar 11 27 Aug 09:46:34 09:48:28 13° 89° (E) 09:50:20 145.826/435.025
FUNcube-1 27 Aug 09:53:15 09:55:13 13° 89° (E) 09:57:10 145.935
UWE-3 27 Aug 09:57:39 10:01:06 24° 94° (E) 10:04:30 435.000/436.395/437.385
CUBEBUG 2 27 Aug 09:58:40 10:02:38 37° 97° (E) 10:06:30 437.445
SEEDS 27 Aug 10:09:38 10:13:52 83° 283° (WNW) 10:18:05 437.485
ZACube-1 27 Aug 10:13:21 10:16:42 23° 94° (E) 10:20:01 437.345
Cubesat XI-IV 27 Aug 10:15:06 10:16:57 12° 306° (NW) 10:18:48 437.490
CUSAT 1 27 Aug 10:15:29 10:20:46 28° 70° (ENE) 10:26:55 437.405
ANTELSAT 27 Aug 10:17:02 10:20:53 27° 67° (ENE) 10:24:41 437.575/2403.000
BEESAT 2 27 Aug 10:17:13 10:18:25 11° 109° (ESE) 10:19:37 435.950
HO-68 27 Aug 10:17:21 10:24:33 79° 289° (WNW) 10:31:42 435.675
YUBILEINY 27 Aug 10:24:22 10:28:48 14° 307° (NW) 10:33:15 435.215
ISS 27 Aug 10:26:39 10:29:53 61° 146° (SE) 10:33:08 145.825
CANX-2 27 Aug 10:30:36 10:34:22 31° 291° (WNW) 10:38:07 2200.000
DOVE 4 27 Aug 10:32:19 10:34:30 13° 304° (WNW) 10:36:38 437.250
BEESAT 3 27 Aug 10:33:39 10:37:08 32° 117° (ESE) 10:40:40 437.485
PRISM 27 Aug 10:36:08 10:39:18 21° 266° (W) 10:42:31 437.425
CUTE 1.7 + AOD 2 27 Aug 10:36:49 10:40:34 31° 291° (WNW) 10:44:18 437.475
AAUSAT CUBESAT 2 27 Aug 10:42:11 10:46:19 66° 286° (WNW) 10:50:27 437.432
TIGRISAT 27 Aug 10:47:24 10:51:50 50° 72° (ENE) 10:56:13 435.000
COMPASS 1 27 Aug 10:49:57 10:53:55 43° 289° (WNW) 10:57:53 437.405
DELFI C3 27 Aug 10:50:10 10:53:28 24° 95° (E) 10:56:46 145.870
Cosmos 2504 27 Aug 10:52:05 10:57:57 21° 298° (WNW) 11:03:36 435.465 / 435.565
AIST 1 27 Aug 10:56:08 11:00:23 55° 281° (WNW) 11:04:44
DUCHIFAT 1 27 Aug 11:00:34 11:01:25 11° 59° (ENE) 11:02:16 145.980
QB50P2 27 Aug 11:01:21 11:03:21 13° 60° (ENE) 11:05:21 145.880/145.840
SO-50 27 Aug 11:01:49 11:04:17 15° 251° (WSW) 11:06:43 436.795
POLYITAN 1 27 Aug 11:03:50 11:05:52 13° 61° (ENE) 11:07:55 437.675
HUMSAT D 27 Aug 11:03:58 11:06:42 17° 92° (E) 11:09:25 437.325/437.525
DANDE 27 Aug 11:08:04 11:12:25 26° 72° (ENE) 11:17:45 436.750
NANOSAT C BR1 27 Aug 11:12:24 11:14:50 15° 62° (ENE) 11:17:17 145.865
UNISAT 6 27 Aug 11:15:42 11:20:19 80° 256° (WSW) 11:24:52 437.425
RS-15 27 Aug 11:16:15 11:28:43 83° 54° (NE) 11:40:58 29.354- 29.394
CINEMA 3 27 Aug 11:16:19 11:18:16 13° 302° (WNW) 11:20:12 145.822/145.860
Oscar 11 27 Aug 11:20:45 11:25:02 65° 287° (WNW) 11:29:18 145.826/435.025
FUNcube-1 27 Aug 11:27:46 11:31:51 57° 287° (WNW) 11:35:54 145.935
UWE-3 27 Aug 11:33:54 11:37:36 31° 292° (WNW) 11:41:15 435.000/436.395/437.385
CUBEBUG 2 27 Aug 11:35:48 11:39:02 21° 295° (WNW) 11:42:12 437.445
PCSat 27 Aug 11:36:52 11:38:18 11° 101° (E) 11:39:44 145.827
ZACube-1 27 Aug 11:49:20 11:53:03 32° 291° (WNW) 11:56:44 437.345
BEESAT 2 27 Aug 11:51:42 11:55:38 75° 305° (NW) 11:59:38 435.950
ANTELSAT 27 Aug 11:53:17 11:57:28 34° 263° (W) 12:01:37 437.575/2403.000
QB50P1 27 Aug 11:54:19 11:58:20 40° 70° (ENE) 12:02:21 145.935-145.965
BUGSAT 1 27 Aug 11:55:10 11:58:00 18° 63° (ENE) 12:00:51 437.445
CUSAT 1 27 Aug 11:56:49 12:03:00 62° 263° (W) 12:10:28 437.405
ISS 27 Aug 12:03:30 12:06:31 33° 345° (NNW) 12:09:33 145.825
Cosmos 2499 27 Aug 12:03:54 12:09:37 22° 81° (E) 12:15:04 435.465 / 435.565
POPSAT HIP 1 27 Aug 12:04:08 12:08:16 50° 72° (ENE) 12:12:26 437.405
HO-68 27 Aug 12:06:38 12:11:11 18° 309° (NW) 12:15:45 435.675
JAS-2 27 Aug 12:09:08 12:13:43 32° 64° (ENE) 12:18:36 435.910
BEESAT 3 27 Aug 12:11:22 12:14:49 28° 315° (NW) 12:18:18 437.485
DELFI C3 27 Aug 12:24:50 12:28:19 29° 291° (WNW) 12:31:46 145.870
AIST 2 27 Aug 12:25:26 12:26:37 11° 108° (ESE) 12:27:46 435.215
TIGRISAT 27 Aug 12:25:37 12:28:46 18° 268° (W) 12:31:55 435.000
DUCHIFAT 1 27 Aug 12:32:09 12:36:25 90° 260° (W) 12:40:42 145.980
QB50P2 27 Aug 12:34:20 12:38:36 71° 257° (WSW) 12:42:54 145.880/145.840
VELOX 1 27 Aug 12:35:16 12:38:00 16° 91° (E) 12:40:44 145.980
GONETS M04 27 Aug 12:36:29 12:44:43 48° 88° (E) 12:53:02
POLYITAN 1 27 Aug 12:36:51 12:41:08 70° 259° (WSW) 12:45:25 437.675
CUBEBUG 1 27 Aug 12:37:48 12:41:10 21° 93° (E) 12:44:29 437.445
HUMSAT D 27 Aug 12:38:40 12:42:32 42° 289° (WNW) 12:46:23 437.325/437.525
NANOSAT C BR1 27 Aug 12:45:53 12:50:06 60° 259° (WSW) 12:54:19 145.865
AUBIESAT-1 27 Aug 12:49:50 12:53:43 40° 103° (ESE) 12:57:19 437.475
DANDE 27 Aug 12:50:08 12:55:14 51° 263° (W) 13:01:51 436.750
DX 1 27 Aug 12:53:41 12:56:29 16° 91° (E) 12:59:17 434.975-435.025
M-CUBED/EXP-1 PRIME 27 Aug 12:55:05 12:59:15 58° 105° (ESE) 13:03:03 437.505
SPROUT 27 Aug 12:57:51 13:00:05 14° 90° (E) 13:02:18 437.525
Oscar 19 27 Aug 12:58:30 13:02:08 20° 60° (ENE) 13:05:47 437.125/150
ESTCUBE 1 27 Aug 13:13:15 13:17:48 72° 102° (ESE) 13:22:20 437.505/2401.250
PCSat 27 Aug 13:15:21 13:20:45 77° 119° (ESE) 13:26:11 145.827
AO-85 27 Aug 13:19:18 13:21:27 13° 29° (NNE) 13:23:32 145.980
